Regional Weather Roundup
Issued by NWS

Home | Current Version | Previous Version | Graphics & Text | Print | Product List | Glossary On
Versions: 1 2 3 4 5 6 7 8 9 10 11 12 13 14 15 16 17 18 19 20 21 22 23 24 25 26 27 28 29 30 31 32 33 34 35 36 37 38 39 40 41 42 43 44 45 46 47 48 49 50
000
ASUS43 KFSD 192202
RWRSD

WEATHER ROUNDUP FOR SOUTH DAKOTA
NATIONAL WEATHER SERVICE SIOUX FALLS SD
400 PM CST SUN NOV 19 2017

NOTE: "FAIR" INDICATES FEW OR NO CLOUDS BELOW 12,000 FEET WITH NO
SIGNIFICANT WEATHER AND/OR OBSTRUCTIONS TO VISIBILITY.


SDZ001>005-009-010-012>017-192300-
NORTHWEST AND NORTH CENTRAL SOUTH DAKOTA

CITY           SKY/WX    TMP DP  RH WIND       PRES   REMARKS
BUFFALO          N/A     49  19  30 SW8       29.71F
FAITH            N/A     47  24  40 SW9       29.81F
MOBRIDGE       CLOUDY    46  24  42 CALM      29.79F
$$

SDZ012>016-024>037-041>051-057-063-072>074-192300-
SOUTHWEST AND SOUTH CENTRAL SOUTH DAKOTA

CITY           SKY/WX    TMP DP  RH WIND       PRES   REMARKS
RAPID CTY ARPT CLOUDY    53  18  25 SE9       29.80F
PIERRE         CLOUDY    53  24  32 W9        29.83S
CUSTER         CLOUDY    42  13  30 W17G23    29.84F
ELLSWORTH AFB  CLOUDY    54  20  26 SE10      29.79F
PHILIP         CLOUDY    52  21  29 W8        29.82F
PINE RIDGE     CLOUDY    53  18  25 SW6       29.86F
SPEARFISH      FAIR      52  19  28 CALM      29.80F
WINNER         FAIR      59  17  19 W5        29.86F
$$

SDZ004>011-016>023-039-040-192300-
NORTHEAST SOUTH DAKOTA

CITY           SKY/WX    TMP DP  RH WIND       PRES   REMARKS
ABERDEEN       CLOUDY    46  23  40 SW3       29.82F
WATERTOWN      CLOUDY    44  26  49 SW9       29.83F
BROOKINGS      CLOUDY    46  24  42 SW10      29.87S
SISSETON         N/A     46  26  45 SW10      29.80S
$$

SDZ017-020-022-023-036>040-048>070-192300-
SOUTHEAST SOUTH DAKOTA

CITY           SKY/WX    TMP DP  RH WIND       PRES   REMARKS
SIOUX FALLS    CLOUDY    51  26  37 SW7       29.89F
HURON          CLOUDY    49  23  36 SW6       29.85S
CHAMBERLAIN    CLOUDY    56  28  34 S6        29.85F
MITCHELL       CLOUDY    52  25  35 SW6       29.87F
YANKTON        CLOUDY    54  26  34 SW7       29.91S
$$

ABBREVIATIONS USED IN REMARKS
   TC - TEMPERATURE IN CELSIUS
  WCI - WIND CHILL INDEX
   HX - HEAT INDEX
  VSB - VISIBILITY




USA.gov is the U.S. government's official web portal to all federal, state and local government web resources and services.